This demonstration page uses our WeatherBlox Daily Observations layout. Learn more.

Left ArrowRight Arrow

Hourly Observations for November 19, 2022

Temp ( °F °C ) Dew Point ( °F °C ) Humidity (%) Winds ( mph kmh ) Pressure ( in mb ) Visibility ( mi km ) Precip ( " mm )
12:56 am 00:56 Clear 19 -7.2 6 -14.4 56 56 W 14 22 30.24 1024 10 16 0.00 0.00
1:56 am 01:56 Clear 21 -6.1 6 -14.4 52 52 W 14 22 30.24 1024 10 16 0.00 0.00
2:56 am 02:56 Clear 19 -7.2 4 -15.6 51 51 WNW 14 22 30.26 1025 10 16 0.00 0.00
3:56 am 03:56 Clear 19 -7.2 4 -15.6 51 51 WNW 12 19 30.27 1025 10 16 0.00 0.00
4:56 am 04:56 Mostly Clear 23 -5 5 -15 45 45 WNW 15 24 30.27 1025 10 16 0.00 0.00
5:56 am 05:56 Mostly Clear 20 -6.7 4 -15.6 49 49 WNW 9 15 30.32 1027 10 16 0.00 0.00
6:56 am 06:56 Clear 20 -6.7 9 -12.8 62 62 NW 12 19 30.36 1028 10 16 0.00 0.00
7:56 am 07:56 Sunny 20 -6.7 11 -11.7 67 67 NW 13 20 30.40 1029 10 16 0.00 0.00
8:56 am 08:56 Mostly Sunny 24 -4.4 13 -10.6 62 62 NW 13 20 30.42 1030 10 16 0.00 0.00
9:56 am 09:56 Cloudy 25 -3.9 13 -10.6 60 60 NW 15 24 30.43 1031 10 16 0.00 0.00
10:56 am 10:56 Mostly Cloudy 28 -2.2 14 -10 55 55 NW 20 31 30.44 1031 10 16 0.00 0.00
11:56 am 11:56 Partly Cloudy 29 -1.7 13 -10.6 51 51 NNW 22 35 30.45 1031 10 16 0.00 0.00
12:56 pm 12:56 Sunny 32 0 13 -10.6 45 45 NNW 20 31 30.44 1031 10 16 0.00 0.00
1:56 pm 13:56 Sunny 33 0.6 9 -12.8 36 36 NW 17 28 30.42 1030 10 16 0.00 0.00
2:56 pm 14:56 Sunny 33 0.6 10 -12.2 38 38 NW 18 30 30.42 1030 10 16 0.00 0.00
3:56 pm 15:56 Sunny 34 1.1 9 -12.8 34 34 NNW 15 24 30.41 1030 10 16 0.00 0.00
4:56 pm 16:56 Sunny 31 -0.6 12 -11.1 45 45 N 8 13 30.41 1030 10 16 0.00 0.00
5:56 pm 17:56 Clear 23 -5 8 -13.3 52 52 Calm 30.42 1030 10 16 0.00 0.00
6:56 pm 18:56 Clear 18 -7.8 7 -13.9 61 61 S 3 6 30.43 1031 10 16 0.00 0.00
7:56 pm 19:56 Clear 17 -8.3 8 -13.3 67 67 S 6 9 30.42 1030 10 16 0.00 0.00
8:56 pm 20:56 Clear 19 -7.2 10 -12.2 67 67 SSW 9 15 30.41 1030 10 16 0.00 0.00
9:56 pm 21:56 Clear 19 -7.2 11 -11.7 70 70 SSW 10 17 30.41 1030 10 16 0.00 0.00
10:56 pm 22:56 Clear 20 -6.7 11 -11.7 67 67 SSW 12 19 30.39 1029 10 16 0.00 0.00
11:56 pm 23:56 Clear 22 -5.6 13 -10.6 68 68 SSW 14 22 30.37 1028 10 16 0.00 0.00

Powered by AerisWeather